Regional Weather Roundup
Issued by NWS State College, PA

Home | Current Version | Previous Version | Text Only | Print | Product List | Glossary On
Versions: 1 2 3 4 5 6 7 8 9 10 11 12 13 14 15 16 17 18 19 20 21 22 23 24 25 26 27 28 29 30 31 32 33 34 35 36 37 38 39 40 41 42 43 44 45 46 47 48 49 50
000
ASUS41 KCTP 280910
RWRCTP

REGIONAL WEATHER ROUNDUP
NATIONAL WEATHER SERVICE STATE COLLEGE PA
500 AM EDT FRI JUL 28 2017

Note: "fair" indicates few or no clouds below 12,000 feet with no
significant weather and/or obstructions to visibility.

* = STATION THAT DOES NOT REPORT PRECIPITATION /E.G. RAIN...SNOW...ETC/
    THUNDER OR FOG.

PAZ002>004-007>009-013>016-020>023-029>032-281000-
WESTERN PENNSYLVANIA

CITY           SKY/WX    TMP DP  RH WIND       PRES   REMARKS
ERIE           CLOUDY    70  66  87 E10       29.88S
MEADVILLE      CLOUDY    63  63 100 NE5       29.89F
FRANKLIN*      CLOUDY    63  61  94 E5        29.90S VSB 3/4
NEW CASTLE     CLOUDY    67  66  97 NE3       29.88S
BEAVER COUNTY  NOT AVBL
BUTLER*        CLOUDY    70  66  88 CALM      29.88S
PITTSBURGH INT CLOUDY    70  69  97 CALM      29.87S FOG
PITTSBURGH     CLOUDY    70  66  87 CALM      29.87S
INDIANA*       CLOUDY    70  70 100 CALM      29.91S
LATROBE        CLOUDY    68  68 100 CALM      29.89S
WASHINGTON CO* CLOUDY    64  64 100 CALM      29.87S VSB 1
$$

PAZ004>006-010>012-017>019-024>028-033>037-041-042-045-046-049>053-281000-
CENTRAL PENNSYLVANIA

CITY           SKY/WX    TMP DP  RH WIND       PRES   REMARKS
BRADFORD       CLOUDY    63  63 100 CALM      29.92F
DUBOIS         FOG       62  60  93 CALM      29.90S VSB<1/4
CLEARFIELD     CLOUDY    62  61  96 N5        29.90S
JOHNSTOWN      MOCLDY    68  66  93 CALM      29.92S
ALTOONA        CLOUDY    66  66 100 CALM      29.90R FOG
STATE COLLEGE  MOCLDY    65  65  97 CALM      29.88S FOG
WILLIAMSPORT   CLEAR     65  65 100 CALM      29.85S
SELINSGROVE    FOG       65  65 100 N3        29.86S VSB 1/4
FT INDIANTOWN  CLOUDY    71  71 100 CALM      29.85S
CAPITAL CITY   CLOUDY    74  70  87 CALM      29.85R FOG
HARRISBURG     CLOUDY    73  72  96 CALM      29.84R FOG
YORK           CLOUDY    74  74 100 CALM      29.85R FOG
$$

PAZ038>040-043-044-047-048-054-055-060>062-067>071-281000-
EASTERN PENNSYLVANIA

CITY           SKY/WX    TMP DP  RH WIND       PRES   REMARKS
SCRANTON       CLEAR     65  63  93 CALM      29.89R
MOUNT POCONO   PTCLDY    59  59 100 N6        29.92R
ALLENTOWN      FOG       66  64  93 N3        29.86R VSB 1/4
QUAKERTOWN*    CLOUDY    70  70 100 CALM      29.87R VSB 1/2
READING        FOG       69  69 100 NW3       29.85R VSB 1/2
LANCASTER      CLOUDY    72  71  97 CALM      29.85R FOG
COATESVILLE    FOG       72  72 100 CALM      29.87S VSB<1/4
POTTSTOWN      CLOUDY    69  69 100 CALM      29.87R FOG
BLUE BELL      CLOUDY    68  68 100 CALM      29.87R
DOYLESTOWN       N/A    N/A N/A N/A MISG      29.86R
WILLOW GROVE   NOT AVBL
NORTH PHILA    CLEAR     70  66  87 CALM      29.86R
PHILADELPHIA   MOCLDY    72  70  93 E5        29.84R
$$




USA.gov is the U.S. government's official web portal to all federal, state and local government web resources and services.